Home > Weather > Fredrikstad > Past weeks

Flag for Norway Weather for the Past 2 Weeks in Fredrikstad, Norway

Now
25 °F

Partly sunny.


Feels Like: 17 °F
Forecast: 22 / 32 °F
Wind: 7 mph from North

Location: Rygge

Current Time: Feb 14, 2016 at 12:14:49 PM

Latest Report: Feb 14, 2016 at 11:20 AM


Visibility: N/A

Pressure: 29.59 "Hg

Humidity: 74%

Dew point: 18 °F

Location of FredrikstadLocation

Historic Weather in Fredrikstad — Graph

°F

Fredrikstad Temperature Yesterday

Maximum temperature yesterday: 28 °F (at 1:20 PM)
Minimum temperature yesterday: 23 °F (at 10:50 AM)
Average temperature yesterday: 25 °F

High & Low Weather Summary for the Past Weeks

 TemperatureHumidityPressure
High43 °F (Feb 6, 9:20 AM)100% (Feb 1, 1:20 PM)29.92 "Hg (Feb 1, 1:20 PM)
Low23 °F (Feb 13, 10:50 AM)45% (Jan 31, 2:20 PM)28.77 "Hg (Feb 2, 6:20 PM)
Average35 °F81%29.30 "Hg
* Reported Jan 30 10:20 AM — Feb 14 10:50 AM, Fredrikstad, Weather by CustomWeather, © 2016

Note: Actual official high and low records may vary slightly from our data, if they occured in-between our weather recording intervals... More about our weather records

Advertising

Fredrikstad Weather History for the Previous 24 Hours

 ConditionsComfort  
Time TempWeatherWind HumidityBarometerVisibility
10:50 AM
Sun, Feb 14
23 °FPartly sunny.6 mph80%29.59 "HgN/A
10:20 AM23 °FOvercast.7 mph86%29.56 "HgN/A
9:50 AM23 °FPartly sunny.3 mph86%29.56 "HgN/A
9:20 AM23 °FOvercast.6 mph86%29.56 "HgN/A
8:20 AM23 °FOvercast.6 mph93%29.53 "HgN/A
7:50 AM23 °FOvercast.5 mph93%29.53 "HgN/A
7:20 AM23 °FOvercast.5 mph93%29.53 "HgN/A
6:50 AM23 °FOvercast.5 mph93%29.53 "HgN/A
6:20 AM25 °FOvercast.5 mph86%29.53 "HgN/A
5:50 AM25 °FPassing clouds.3 mph86%29.53 "HgN/A
5:20 AM25 °FOvercast.3 mph93%29.53 "HgN/A
4:50 AM23 °FOvercast.3 mph93%29.50 "HgN/A
4:20 AM23 °FOvercast.2 mph93%29.50 "HgN/A
3:50 AM23 °FOvercast.1 mph93%29.50 "HgN/A
2:50 AM25 °FOvercast.3 mph93%29.50 "HgN/A
2:20 AM25 °FOvercast.2 mph93%29.50 "HgN/A
1:50 AM25 °FOvercast.2 mph93%29.50 "HgN/A
1:20 AM23 °FOvercast.2 mph100%29.50 "HgN/A
12:50 AM25 °FOvercast.2 mph93%29.50 "HgN/A
12:20 AM23 °FOvercast.1 mph100%29.50 "HgN/A
11:50 PM
Sat, Feb 13
23 °FOvercast.2 mph100%29.50 "HgN/A
11:20 PM23 °FOvercast.1 mph93%29.50 "HgN/A
10:50 PM23 °FPassing clouds.3 mph93%29.50 "HgN/A
9:50 PM23 °FPassing clouds.1 mph93%29.50 "HgN/A
9:20 PM23 °FOvercast.1 mph93%29.47 "HgN/A
8:50 PM25 °FOvercast.1 mph86%29.47 "HgN/A
8:20 PM23 °FOvercast.No wind93%29.47 "HgN/A
7:50 PM23 °FOvercast.1 mph93%29.47 "HgN/A
7:20 PM23 °FOvercast.1 mph93%29.47 "HgN/A
6:50 PM25 °FOvercast.1 mph80%29.47 "HgN/A
6:20 PM25 °FPassing clouds.1 mph80%29.47 "HgN/A
5:50 PM23 °FPassing clouds.1 mph86%29.47 "HgN/A
5:20 PM25 °FPassing clouds.3 mph80%29.47 "HgN/A
4:50 PM27 °FPartly sunny.3 mph74%29.47 "HgN/A
4:20 PM27 °FScattered clouds.3 mph74%29.47 "HgN/A
3:50 PM27 °FScattered clouds.2 mph74%29.47 "HgN/A
3:20 PM27 °FScattered clouds.3 mph74%29.45 "HgN/A
2:50 PM28 °FPartly sunny.3 mph69%29.45 "HgN/A
2:20 PM28 °FScattered clouds.2 mph69%29.45 "HgN/A
1:50 PM27 °FScattered clouds.2 mph74%29.45 "HgN/A
1:20 PM28 °FScattered clouds.2 mph69%29.45 "HgN/A
12:50 PM27 °FPartly sunny.3 mph74%29.45 "HgN/A
12:20 PM27 °FScattered clouds.3 mph74%29.45 "HgN/A
Weather by CustomWeather, © 2016

See weather overviewHow to use our weather pages